Terminal Aerodrome Forecast
Issued by NWS Caribou, ME

Home | Current Version | Previous Version | Text Only | Print | Product List | Glossary On
Versions: 1 2 3 4 5 6 7 8 9 10 11 12 13 14 15 16 17
000
FTUS41 KCAR 271100
TAFBGR
TAF
KBGR 271120Z 2712/2812 20005KT P6SM FEW250
     FM271800 23009KT 6SM -TSRA BKN050CB
     FM272300 29005KT P6SM SCT250=

USA.gov is the U.S. government's official web portal to all federal, state and local government web resources and services.